Regional Weather Roundup
Issued by NWS

Home | Current Version | Previous Version | Graphics & Text | Print | Product List | Glossary On
Versions: 1 2 3 4 5 6 7 8 9 10 11 12 13 14 15 16 17 18 19 20 21 22 23 24 25 26 27 28 29 30 31 32 33 34 35 36 37 38 39 40 41 42 43 44 45 46 47 48 49 50
000
ASUS43 KBIS 271820
RWRND

NORTH DAKOTA REGIONAL WEATHER ROUNDUP
NATIONAL WEATHER SERVICE BISMARCK ND
100 PM CDT WED AUG 27 2014

NOTE: "FAIR" INDICATES FEW OR NO CLOUDS BELOW 12,000 FEET WITH NO
SIGNIFICANT WEATHER AND/OR OBSTRUCTIONS TO VISIBILITY.


NDZ001>003-009>011-017-271900-
NORTHWEST NORTH DAKOTA

CITY           SKY/WX    TMP DP  RH WIND       PRES   REMARKS
WILLISTON      SUNNY     77  58  51 SE8       30.06F
6HR MIN TEMP:  50; 6HR MAX TEMP:  77;

MINOT          FAIR      72  52  49 S12       30.10F
MINOT AFB      FAIR      72  54  52 S10       30.09F
$$

NDZ018>021-031>035-040>046-271900-
SOUTHWEST NORTH DAKOTA

CITY           SKY/WX    TMP DP  RH WIND       PRES   REMARKS
BISMARCK       SUNNY     71  58  63 S6        30.14F
6HR MIN TEMP:  49; 6HR MAX TEMP:  72;

DICKINSON      SUNNY     72  58  61 S8        30.10F
GARRISON         N/A     70  59  68 S5        30.12F
6HR MIN TEMP:  44; 6HR MAX TEMP:  70;

HETTINGER ARPT SUNNY     72  57  59 SE9       30.13F
$$

NDZ004>008-012>016-024-026-027-054-271900-
NORTHEAST NORTH DAKOTA

CITY           SKY/WX    TMP DP  RH WIND       PRES   REMARKS
GRAND FORKS    FAIR      71  53  52 S12       30.16F
GRND FRKS AFB  FAIR      72  54  53 SW9       30.17F
DEVILS LAKE    PTSUNNY   68  52  56 SW7       30.14F
$$

NDZ022-023-025-028>030-036>039-047>053-271900-
SOUTHEAST NORTH DAKOTA

CITY           SKY/WX    TMP DP  RH WIND       PRES   REMARKS
FARGO          FAIR      71  57  61 VRB3      30.17F
6HR MIN TEMP:  50; 6HR MAX TEMP:  71;

JAMESTOWN      FAIR      70  59  68 SE10      30.16F
$$



USA.gov is the U.S. government's official web portal to all federal, state and local government web resources and services.